Location: Plum
(40.5000°N, 79.7500°W)
Time: 15:46:13
(UTC-04:00)

MOZ.5/SAFIR/RUBIN 5/SL-8 - Visible Passes

Search period start: 24 August 2016 00:00
Search period end: 03 September 2016 00:00
Orbit: 678 x 707 km, 97.9° (Epoch: 23 August)

Date Brightness Start Highest point End Pass type
(mag) Time Alt. Az. Time Alt. Az. Time Alt. Az.
24 Aug 5.8 04:03:09 10° SE 04:07:00 27° ENE 04:10:52 10° NNE visible
24 Aug 4.6 05:40:26 10° SSW 05:44:28 30° W 05:48:32 10° NW visible
25 Aug 4.0 04:41:57 10° SSE 04:46:33 68° ENE 04:51:10 10° N visible
26 Aug 6.4 03:45:58 10° ESE 03:49:07 18° ENE 03:52:16 10° NNE visible
26 Aug 4.0 05:21:54 10° S 05:26:20 45° W 05:30:48 10° NNW visible
27 Aug 4.8 04:24:11 10° SE 04:28:34 44° ENE 04:32:58 10° N visible
27 Aug 5.2 06:03:13 10° SW 06:06:21 18° W 06:09:29 10° NW visible
28 Aug 6.7 03:29:23 10° E 03:31:17 12° ENE 03:33:10 10° NE visible
28 Aug 3.6 05:03:38 10° S 05:08:14 71° WSW 05:12:53 10° NNW visible
29 Aug 5.6 04:06:38 10° SE 04:10:37 29° ENE 04:14:37 10° N visible
29 Aug 4.7 05:44:14 10° SSW 05:48:09 27° W 05:52:05 10° NW visible
30 Aug 3.9 04:45:35 10° SSE 04:50:11 75° ENE 04:54:51 10° N visible
31 Aug 6.2 03:49:22 10° ESE 03:52:43 20° ENE 03:56:05 10° NNE visible
31 Aug 4.1 05:25:39 10° SSW 05:29:59 41° W 05:34:24 10° NNW visible
01 Sep 4.6 04:27:45 10° SSE 04:32:11 49° ENE 04:36:41 10° N visible
01 Sep 5.3 06:07:11 10° SW 06:10:02 16° W 06:12:54 10° NW visible
02 Sep 6.7 03:32:34 10° E 03:34:53 14° ENE 03:37:11 10° NNE visible
02 Sep 3.7 05:07:25 11° S 05:11:54 64° W 05:16:32 10° NNW visible
